Location: Shenandoah County Park
(38.9356°N, 78.4524°W)
Time: 18:20:15
(UTC-04:00)

Explorer 11/Cluster Stage 4 - Pass Details

Date: 27 February 2024
Orbit: 465 x 1219 km, 28.8° (Epoch: 21 April)

Event Time Altitude Azimuth Distance (km) Brightness Sun altitude
Rises 05:59:01 0° 259° (W) 3,862 - -10.6°
Exits shadow 06:02:24 - 242° (WSW) 3,043 9.1 -10.0°
Reaches altitude 10° 06:04:28 10° 227° (SW) 2,696 8.9 -9.6°
Maximum altitude 06:06:04 11° 212° (SSW) 2,558 8.9 -9.3°
Drops below altitude 10° 06:07:37 10° 198° (SSW) 2,556 9.1 -9.0°
Sets 06:12:15 0° 163° (SSE) 3,262 10.1 -8.1°
